Total_Precipitation_Accumulation
0.23 0.28 0.33 0.42 0.36 0.24 0.11 0.03 0.01 0.01 0.01 0.02 0.02 0.03 0.02 0.03 0.04 0.07 0.05 0.04 0.04 0.06 0.10 0.18 0.28 0.30 0.25 0.21 0.17 0.13 0.14 0.15 0.16 0.18 0.18 0.17 0.16 0.18 0.22 0.25 0.25 0.27 0.28 0.33 0.38 0.37 0.34 0.31 0.23
0.27 0.39 0.55 0.61 0.40 0.24 0.11 0.03 0.01 0.01 0.01 0.01 0.02 0.02 0.02 0.02 0.04 0.05 0.05 0.05 0.07 0.08 0.11 0.19 0.28 0.31 0.28 0.23 0.16 0.14 0.16 0.18 0.21 0.22 0.23 0.25 0.22 0.23 0.25 0.28 0.25 0.24 0.26 0.29 0.26 0.18 0.15 0.15 0.12
0.44 0.60 0.76 0.67 0.47 0.26 0.12 0.03 0.02 0.02 0.02 0.02 0.03 0.03 0.04 0.05 0.04 0.07 0.07 0.05 0.09 0.12 0.14 0.20 0.29 0.33 0.32 0.27 0.21 0.18 0.19 0.21 0.22 0.25 0.29 0.31 0.31 0.30 0.27 0.27 0.22 0.19 0.20 0.18 0.12 0.09 0.07 0.07 0.06
0.68 0.90 0.93 0.74 0.44 0.20 0.09 0.04 0.03 0.04 0.03 0.03 0.04 0.06 0.08 0.06 0.07 0.07 0.12 0.11 0.10 0.17 0.22 0.29 0.34 0.37 0.38 0.33 0.27 0.24 0.25 0.24 0.25 0.25 0.28 0.33 0.36 0.37 0.33 0.26 0.17 0.14 0.12 0.11 0.08 0.06 0.05 0.04 0.03
0.92 1.05 0.97 0.71 0.34 0.14 0.07 0.06 0.05 0.05 0.05 0.05 0.07 0.08 0.13 0.10 0.11 0.15 0.17 0.16 0.14 0.19 0.26 0.36 0.43 0.44 0.42 0.39 0.36 0.34 0.32 0.30 0.28 0.27 0.29 0.33 0.36 0.34 0.29 0.20 0.14 0.10 0.10 0.09 0.07 0.06 0.05 0.03 0.02
1.06 1.14 0.94 0.59 0.25 0.10 0.06 0.07 0.08 0.08 0.07 0.10 0.13 0.17 0.21 0.21 0.22 0.24 0.27 0.22 0.16 0.19 0.32 0.43 0.52 0.51 0.47 0.42 0.41 0.39 0.37 0.36 0.34 0.32 0.34 0.35 0.35 0.32 0.25 0.19 0.14 0.11 0.11 0.10 0.08 0.06 0.04 0.04 0.03
0.98 1.00 0.75 0.42 0.20 0.11 0.07 0.08 0.11 0.12 0.11 0.13 0.16 0.23 0.33 0.37 0.37 0.35 0.38 0.37 0.29 0.27 0.39 0.50 0.62 0.62 0.58 0.54 0.48 0.43 0.41 0.41 0.42 0.42 0.42 0.38 0.32 0.30 0.26 0.21 0.16 0.13 0.11 0.11 0.08 0.06 0.04 0.04 0.03
0.93 1.08 0.64 0.39 0.22 0.14 0.09 0.10 0.12 0.16 0.17 0.15 0.21 0.29 0.37 0.46 0.53 0.54 0.57 0.61 0.55 0.47 0.51 0.59 0.68 0.68 0.62 0.58 0.55 0.51 0.46 0.44 0.46 0.47 0.44 0.39 0.34 0.31 0.27 0.21 0.17 0.13 0.11 0.11 0.09 0.07 0.05 0.04 0.03
0.91 1.14 0.68 0.33 0.25 0.18 0.14 0.14 0.14 0.19 0.25 0.22 0.24 0.30 0.41 0.57 0.73 0.78 0.85 0.87 0.85 0.78 0.71 0.70 0.75 0.75 0.69 0.64 0.60 0.58 0.53 0.48 0.47 0.46 0.41 0.39 0.39 0.35 0.27 0.18 0.14 0.13 0.11 0.10 0.09 0.07 0.05 0.03 0.02
0.88 0.87 0.57 0.33 0.28 0.25 0.22 0.22 0.24 0.31 0.37 0.34 0.32 0.42 0.59 0.85 1.03 1.00 0.86 0.90 0.90 0.93 0.89 0.82 0.79 0.77 0.77 0.72 0.66 0.66 0.59 0.51 0.48 0.42 0.41 0.40 0.40 0.36 0.26 0.21 0.16 0.14 0.11 0.11 0.11 0.09 0.06 0.04 0.02
0.60 0.50 0.42 0.40 0.36 0.33 0.33 0.30 0.29 0.37 0.38 0.39 0.32 0.42 0.65 1.01 1.27 1.27 1.17 1.01 0.97 0.99 1.04 1.01 0.94 0.83 0.77 0.79 0.70 0.65 0.61 0.54 0.49 0.42 0.41 0.42 0.46 0.44 0.39 0.31 0.26 0.23 0.16 0.14 0.13 0.11 0.06 0.04 0.02
0.40 0.34 0.39 0.48 0.45 0.39 0.38 0.36 0.34 0.38 0.36 0.36 0.37 0.43 0.62 0.93 1.25 1.32 1.42 1.31 1.24 1.19 1.12 1.14 1.09 0.98 0.83 0.79 0.73 0.66 0.62 0.57 0.50 0.42 0.39 0.39 0.40 0.39 0.35 0.28 0.24 0.23 0.17 0.15 0.13 0.10 0.06 0.05 0.03
0.33 0.34 0.39 0.45 0.46 0.41 0.42 0.42 0.41 0.38 0.40 0.45 0.50 0.60 0.70 0.96 1.32 1.49 1.62 1.70 1.57 1.36 1.27 1.29 1.20 1.06 0.94 0.85 0.76 0.69 0.67 0.59 0.52 0.49 0.45 0.37 0.30 0.28 0.29 0.24 0.23 0.21 0.16 0.13 0.11 0.08 0.07 0.06 0.04
0.30 0.36 0.42 0.46 0.47 0.42 0.47 0.44 0.42 0.39 0.46 0.58 0.60 0.66 0.77 1.04 1.33 1.57 1.72 1.81 1.67 1.58 1.53 1.52 1.42 1.25 1.06 0.94 0.80 0.70 0.69 0.67 0.65 0.56 0.47 0.45 0.37 0.29 0.28 0.25 0.22 0.20 0.17 0.14 0.10 0.07 0.07 0.07 0.06
0.37 0.47 0.52 0.53 0.51 0.47 0.49 0.52 0.40 0.38 0.51 0.63 0.61 0.64 0.72 0.95 1.27 1.47 1.57 1.65 1.71 1.62 1.69 1.71 1.66 1.54 1.28 1.09 0.98 0.82 0.75 0.74 0.70 0.64 0.53 0.49 0.45 0.38 0.34 0.30 0.24 0.21 0.20 0.19 0.18 0.14 0.10 0.08 0.06
0.63 0.68 0.63 0.49 0.50 0.49 0.57 0.55 0.35 0.38 0.49 0.61 0.63 0.64 0.70 0.81 1.13 1.39 1.51 1.62 1.80 1.75 1.72 1.85 1.86 1.76 1.58 1.36 1.20 1.03 0.89 0.82 0.72 0.68 0.62 0.53 0.48 0.43 0.41 0.35 0.29 0.24 0.23 0.21 0.21 0.20 0.16 0.10 0.07
0.89 0.71 0.46 0.41 0.45 0.48 0.51 0.52 0.39 0.36 0.45 0.54 0.61 0.62 0.67 0.74 0.95 1.27 1.45 1.53 1.75 1.83 1.86 1.91 2.01 2.00 1.95 1.83 1.66 1.42 1.19 1.05 0.95 0.83 0.73 0.63 0.54 0.47 0.45 0.40 0.35 0.33 0.27 0.22 0.18 0.18 0.16 0.13 0.10
0.59 0.41 0.32 0.37 0.39 0.38 0.39 0.45 0.42 0.37 0.42 0.47 0.58 0.65 0.70 0.72 0.79 1.03 1.32 1.48 1.79 2.05 2.12 2.04 2.14 2.26 2.32 2.35 2.18 1.97 1.63 1.33 1.13 0.97 0.88 0.79 0.68 0.58 0.51 0.46 0.40 0.38 0.38 0.31 0.25 0.21 0.18 0.15 0.13
0.44 0.36 0.32 0.33 0.34 0.38 0.36 0.42 0.44 0.41 0.42 0.50 0.59 0.66 0.71 0.70 0.75 0.98 1.20 1.46 1.75 2.12 2.29 2.25 2.20 2.36 2.57 2.40 2.16 1.94 1.71 1.53 1.35 1.19 1.07 0.97 0.87 0.77 0.64 0.54 0.49 0.45 0.42 0.38 0.33 0.32 0.29 0.25 0.23
0.57 0.50 0.41 0.39 0.37 0.42 0.39 0.42 0.42 0.42 0.41 0.47 0.57 0.63 0.63 0.58 0.67 0.89 1.09 1.33 1.51 1.95 2.21 2.22 2.27 2.41 2.57 2.44 2.29 2.22 2.14 1.94 1.75 1.61 1.33 1.11 0.98 0.89 0.80 0.68 0.58 0.53 0.51 0.48 0.44 0.41 0.39 0.36 0.36
0.67 0.57 0.46 0.45 0.47 0.45 0.43 0.46 0.38 0.37 0.37 0.40 0.53 0.60 0.57 0.54 0.62 0.77 0.94 1.14 1.24 1.52 1.90 2.05 2.12 2.28 2.38 2.52 2.76 2.74 2.60 2.28 1.85 1.57 1.46 1.33 1.27 1.16 1.01 0.95 0.85 0.69 0.61 0.57 0.54 0.49 0.46 0.43 0.40
0.68 0.46 0.46 0.47 0.60 0.60 0.47 0.59 0.41 0.36 0.39 0.41 0.51 0.57 0.56 0.55 0.60 0.71 0.82 0.93 1.06 1.20 1.54 1.87 2.07 2.20 2.21 2.27 2.48 2.59 2.44 2.09 1.75 1.56 1.55 1.58 1.50 1.45 1.39 1.24 1.15 1.01 0.84 0.72 0.69 0.64 0.60 0.59 0.55
0.62 0.44 0.52 0.58 0.65 0.65 0.45 0.53 0.45 0.38 0.44 0.47 0.52 0.58 0.58 0.59 0.63 0.69 0.73 0.77 0.85 1.01 1.33 1.65 1.88 2.10 2.12 2.03 2.10 2.30 2.39 2.27 2.10 1.93 1.77 1.66 1.61 1.53 1.50 1.44 1.34 1.22 1.10 0.99 0.93 0.85 0.81 0.77 0.72
0.70 0.72 0.82 0.90 1.07 1.03 0.46 0.45 0.41 0.43 0.53 0.52 0.50 0.59 0.64 0.70 0.71 0.71 0.71 0.71 0.76 0.83 1.00 1.29 1.58 1.90 2.07 2.01 2.02 2.08 2.12 2.20 2.12 1.96 1.91 1.78 1.74 1.65 1.50 1.47 1.43 1.36 1.29 1.20 1.16 1.13 1.03 0.94 0.87
1.11 1.46 1.78 1.73 1.52 0.88 0.28 0.30 0.42 0.40 0.47 0.50 0.52 0.58 0.62 0.64 0.64 0.62 0.60 0.61 0.70 0.78 0.84 1.03 1.19 1.46 1.75 1.87 1.90 1.91 1.98 2.02 2.03 1.99 1.97 1.92 1.75 1.63 1.53 1.47 1.48 1.47 1.38 1.32 1.30 1.25 1.15 1.09 1.01
1.11 1.30 1.36 1.16 0.76 0.39 0.22 0.34 0.42 0.37 0.40 0.44 0.47 0.53 0.61 0.66 0.67 0.64 0.60 0.64 0.74 0.76 0.82 0.92 1.02 1.14 1.37 1.57 1.63 1.65 1.76 1.82 1.78 1.82 1.82 1.77 1.68 1.57 1.56 1.55 1.49 1.49 1.47 1.38 1.33 1.27 1.18 1.15 1.11
1.05 0.96 0.74 0.89 0.63 0.43 0.31 0.27 0.30 0.30 0.34 0.39 0.39 0.43 0.54 0.59 0.60 0.62 0.63 0.67 0.72 0.75 0.79 0.87 0.93 0.96 1.08 1.25 1.37 1.47 1.49 1.50 1.45 1.47 1.49 1.50 1.51 1.46 1.38 1.37 1.37 1.36 1.36 1.34 1.31 1.25 1.16 1.13 1.11
0.93 0.78 0.84 1.09 0.87 0.59 0.30 0.23 0.36 0.36 0.37 0.37 0.37 0.39 0.47 0.55 0.58 0.62 0.65 0.64 0.65 0.68 0.71 0.79 0.81 0.80 0.86 0.96 1.03 1.18 1.27 1.27 1.30 1.30 1.27 1.24 1.23 1.23 1.21 1.19 1.19 1.18 1.19 1.18 1.17 1.13 1.10 1.09 1.02
0.72 0.82 0.88 0.87 0.68 0.68 0.45 0.34 0.35 0.37 0.39 0.40 0.41 0.43 0.48 0.53 0.60 0.65 0.68 0.66 0.64 0.67 0.69 0.71 0.66 0.67 0.71 0.79 0.83 0.88 1.00 1.07 1.12 1.12 1.05 1.06 1.02 0.97 0.95 0.92 0.92 0.96 1.00 1.00 0.99 0.98 0.99 1.01 0.98
0.54 0.55 0.67 0.90 0.68 0.56 0.51 0.35 0.26 0.30 0.34 0.38 0.43 0.43 0.45 0.49 0.54 0.58 0.64 0.64 0.64 0.66 0.68 0.70 0.63 0.60 0.63 0.69 0.70 0.72 0.81 0.91 0.96 1.00 0.94 0.89 0.90 0.84 0.79 0.75 0.72 0.71 0.74 0.77 0.77 0.77 0.81 0.86 0.87